Terminal Aerodrome Forecast
Issued by NWS Sterling, VA

Current Version | Previous Version | Graphics & Text | Print | Product List | Glossary On
Versions: 1 2 3 4 5 6 7 8 9 10 11 12 13 14 15 16 17 18 19 20 21
000
FTUS41 KLWX 311126
TAFIAD
TAF
KIAD 311126Z 3112/0118 20005KT P6SM BKN090
     FM010100 22004KT P6SM SCT110
     FM010800 00000KT P6SM FEW250=

USA.gov is the U.S. government's official web portal to all federal, state and local government web resources and services.